GFSCGP_700_rhum_057.txt.gz
RH
46 45 41 39 36 38 38 37 37 38 35 36 35 43 49 43 45 46 37 30 26 29 36 37 44 49 46 48 55 61 73 73 74 74 77 78 86 83 76 69 55 45 42 49
41 38 40 40 35 33 38 41 43 36 35 33 31 30 46 53 45 36 34 33 31 30 29 30 32 37 42 52 61 57 64 64 71 79 80 83 84 87 76 55 48 44 44 53
38 39 39 40 38 38 39 40 40 38 38 31 30 28 29 36 51 52 51 49 46 41 46 39 33 31 33 38 45 53 59 69 75 81 74 78 88 88 67 56 52 48 56 60
37 38 40 40 39 38 39 38 43 38 41 32 31 31 25 31 45 48 52 53 48 49 47 47 42 42 50 52 62 60 60 67 72 74 71 78 89 85 56 59 58 60 63 65
33 36 44 40 39 39 37 40 36 38 38 38 35 34 29 40 53 41 33 48 48 40 40 44 46 51 57 63 61 84 77 94 83 73 68 72 84 77 60 62 60 58 64 66
37 35 38 38 43 37 37 34 36 37 40 45 34 37 31 30 29 29 36 41 40 43 44 47 51 57 60 66 78 86 86 64 78 74 73 73 80 56 61 61 59 66 73 80
34 34 36 40 39 36 38 36 38 46 58 54 36 39 32 30 32 33 32 33 32 40 49 53 52 51 60 67 75 84 78 67 68 60 64 71 61 57 65 62 67 74 80 89
33 32 34 37 39 35 36 38 35 42 68 58 41 42 30 30 28 30 29 34 35 38 50 50 55 61 69 70 78 81 78 74 77 73 62 72 62 71 75 75 86 88 82 92
32 32 34 36 38 36 36 32 37 40 56 59 39 34 27 25 31 36 37 37 36 38 41 45 55 68 74 77 89 83 75 88 89 59 69 65 67 76 81 82 100 97 98 97
28 30 31 39 37 42 41 39 39 41 46 48 35 33 31 34 33 22 15 18 36 39 36 43 50 62 83 91 87 80 94 79 59 66 67 63 64 67 72 82 94 97 92 99
27 27 28 28 34 33 40 43 38 37 38 57 66 38 28 26 17 22 25 21 16 21 33 42 45 45 56 71 68 48 49 55 59 63 70 67 61 72 78 90 82 79 99 99
25 24 27 26 26 31 36 39 37 38 38 40 39 32 27 27 28 29 29 27 24 21 18 13 17 18 25 27 29 35 41 52 58 62 74 76 87 98 99 99 76 99 73 97
27 32 33 32 31 34 45 36 36 40 41 37 48 35 31 31 30 30 34 31 29 29 34 35 31 34 50 66 74 73 68 69 77 88 98 96 100 87 97 84 99 64 92 77
31 31 33 38 34 31 35 34 38 40 39 35 33 30 27 30 32 33 35 33 33 32 38 42 52 58 74 72 68 77 79 89 97 94 92 100 87 84 85 79 95 92 97 100
32 34 36 33 34 34 37 35 32 35 42 42 39 36 34 34 35 36 34 36 36 34 35 36 57 58 59 60 65 75 85 87 92 95 99 92 77 81 91 96 100 99 91 99
34 38 36 42 40 36 35 33 35 36 41 41 39 36 35 34 32 32 32 31 34 36 37 38 42 46 55 65 74 79 81 87 91 94 90 91 98 100 100 100 97 100 100 98
39 36 36 36 35 36 43 35 39 37 33 36 38 36 33 28 33 33 34 32 34 38 42 39 29 36 48 55 70 84 77 72 75 78 78 100 100 100 100 100 100 99 98 96
38 37 37 37 38 63 28 28 25 24 22 23 30 27 29 30 35 37 36 36 38 37 28 22 27 33 37 39 42 43 42 46 53 67 88 100 100 95 99 100 98 96 95 88
44 41 38 39 43 32 35 34 31 35 35 34 33 33 35 39 39 37 35 29 24 24 26 36 48 52 53 54 42 47 60 72 84 86 89 96 98 100 99 98 96 92 89 60
49 48 44 54 58 74 42 39 42 42 32 33 32 34 33 36 35 32 30 28 28 31 37 44 41 39 41 50 63 74 93 96 99 100 99 85 97 98 96 95 92 82 56 22
58 61 59 54 59 56 51 46 39 38 33 33 33 34 38 36 37 34 31 30 30 32 35 40 46 49 52 62 78 93 97 97 97 98 98 97 98 98 94 94 73 37 14 11
48 57 63 61 71 68 52 50 45 40 36 33 36 36 41 44 47 39 34 32 33 39 45 49 52 59 73 91 94 97 100 100 96 90 95 99 95 92 93 60 22 12 11 11
55 48 50 50 48 47 37 40 49 47 39 46 44 46 49 48 40 40 35 35 41 48 55 66 85 98 96 93 99 96 92 95 98 99 95 87 87 62 30 16 12 12 13 14
50 44 41 40 46 42 37 39 42 48 49 48 48 46 45 42 48 39 40 44 54 65 77 93 99 94 99 97 92 96 98 98 93 85 75 52 36 16 13 14 15 15 15 16
69 47 46 45 42 37 43 49 52 44 44 44 47 50 50 56 55 46 47 59 71 84 99 99 99 98 97 97 98 97 91 81 64 51 27 14 13 13 13 13 14 16 17 17
73 48 37 24 20 32 45 50 52 49 48 52 56 57 60 63 62 52 56 70 93 100 100 99 99 99 100 99 96 84 68 44 19 15 15 15 14 14 15 16 17 18 15 11

GFSCGP_700_rhum_060.txt.gz
RH
42 42 40 39 38 32 32 35 37 33 42 41 36 36 45 54 44 44 55 49 35 33 32 34 44 48 46 46 54 61 68 71 75 77 77 79 82 81 80 76 61 62 57 55
41 40 42 42 40 38 34 37 37 38 42 41 35 30 45 49 42 37 32 28 30 34 34 36 36 36 42 50 53 58 58 64 72 72 73 69 72 78 82 79 67 66 53 51
39 37 39 41 41 40 39 38 37 42 39 37 34 29 32 38 39 40 43 45 37 29 30 32 31 33 37 38 42 46 51 57 67 72 72 72 72 79 88 98 82 58 51 56
33 34 35 39 40 40 39 39 40 42 39 37 37 31 26 27 30 32 37 41 45 43 42 40 42 35 45 46 48 49 53 61 67 71 71 74 74 79 94 97 60 58 57 63
33 36 37 42 40 40 40 40 41 38 37 39 37 38 31 26 25 27 30 32 37 43 42 44 44 49 52 60 66 71 75 81 81 89 91 76 76 80 82 84 60 64 64 66
32 36 37 39 40 44 44 40 38 38 41 49 39 41 33 28 27 29 29 31 32 35 42 42 50 54 54 57 63 69 81 80 75 68 86 86 81 83 84 74 63 67 70 72
31 32 37 36 40 41 39 38 38 46 58 52 35 44 27 32 34 34 33 33 34 37 38 41 44 49 54 58 68 65 71 69 73 68 74 76 79 79 85 58 64 68 69 75
32 32 29 32 38 41 37 37 40 40 63 54 33 39 28 28 28 26 31 31 32 31 33 35 42 49 53 61 71 64 67 88 76 70 78 82 70 81 67 61 68 79 83 75
32 31 28 34 36 39 37 36 37 40 56 61 36 31 25 21 30 35 35 31 33 33 35 38 47 49 56 63 69 66 73 83 79 80 91 70 70 80 65 69 79 70 67 66
30 30 28 34 39 39 42 41 41 44 50 53 39 33 27 24 36 21 18 15 18 34 39 40 36 42 52 69 73 75 88 82 94 91 70 67 68 75 66 69 64 62 85 95
30 28 30 30 31 34 36 44 44 42 42 55 66 36 30 26 18 23 26 25 18 16 28 40 41 40 41 37 76 89 95 61 59 68 65 65 65 63 60 84 94 92 99 88
27 28 29 28 28 28 28 37 41 42 43 42 45 39 32 26 26 28 30 28 28 27 20 12 12 14 19 23 32 42 44 47 50 61 68 70 67 69 78 85 76 98 86 96
29 30 29 28 27 28 33 32 34 41 39 42 54 41 35 33 32 31 31 28 33 32 31 24 20 26 30 39 54 67 69 72 68 59 75 70 81 88 99 88 83 97 94 79
30 29 28 30 26 26 31 33 37 43 44 42 40 37 37 33 30 30 33 34 35 35 32 32 29 30 46 61 72 74 62 62 72 73 86 92 93 96 100 99 100 99 94 97
31 32 31 28 28 31 33 34 34 38 35 37 36 39 40 38 35 32 34 36 34 34 35 34 34 38 52 64 61 61 63 61 65 82 88 91 95 100 98 87 85 99 99 93
31 35 35 36 36 34 36 34 35 36 35 34 39 43 41 37 37 34 34 33 31 30 35 36 37 39 55 51 49 60 69 82 79 86 85 97 100 100 98 99 99 92 70 97
32 36 37 41 40 42 42 37 35 32 33 35 37 35 32 32 33 36 32 31 33 34 38 39 41 42 35 33 50 52 60 71 68 63 63 74 92 98 100 99 99 90 96 97
41 35 40 39 42 63 35 36 33 30 29 32 33 31 28 24 28 29 32 36 36 40 42 40 34 25 22 29 36 40 42 44 42 51 70 83 87 100 99 95 98 99 96 96
46 43 43 40 42 38 37 33 26 20 22 24 26 30 31 33 35 39 40 40 38 34 27 25 25 26 30 37 46 53 51 48 71 80 100 100 93 96 99 98 97 96 93 90
50 45 43 45 44 65 39 33 31 31 35 32 34 31 31 34 38 39 38 33 30 30 30 29 30 31 34 37 42 52 60 73 98 100 98 100 99 98 96 96 93 93 88 81
51 52 46 43 48 46 44 41 36 44 24 30 29 34 33 35 37 37 35 36 34 33 32 30 32 39 46 51 60 72 81 97 100 100 99 97 97 92 90 93 89 82 53 26
42 51 53 53 58 62 46 47 44 29 37 39 38 34 36 38 38 39 43 43 38 36 31 33 40 47 54 62 69 75 91 100 98 96 90 95 98 96 91 76 53 30 16 12
56 47 50 51 50 47 45 38 30 28 49 50 44 44 41 39 43 51 49 42 39 33 35 41 50 58 62 70 81 95 100 98 91 87 93 97 87 72 53 28 14 13 14 15
56 52 52 53 51 48 47 36 36 33 33 48 46 45 46 50 54 53 44 46 38 38 42 51 61 70 76 88 100 98 96 92 94 93 83 70 54 27 15 14 15 15 15 17
57 54 53 51 52 44 40 39 34 35 39 48 49 48 49 51 50 48 56 52 46 45 52 69 82 91 98 99 98 93 92 92 85 71 54 28 16 15 15 15 15 17 20 20
60 57 54 46 52 51 46 38 31 38 45 48 46 45 48 53 56 60 64 65 54 57 77 95 100 100 98 96 97 95 89 76 56 28 18 17 17 15 16 19 22 24 19 11

GFSCGP_700_rhum_063.txt.gz
RH
48 42 37 32 36 36 36 37 37 37 40 40 40 36 36 43 51 40 47 32 30 27 35 32 38 43 44 44 42 41 45 55 61 64 72 78 81 83 82 81 80 80 73 57
46 42 41 42 41 38 37 40 38 38 39 40 34 30 33 34 42 40 36 32 30 28 25 31 40 45 47 50 54 60 64 68 74 78 82 84 84 82 81 81 83 83 62 58
43 40 39 40 41 43 40 39 38 38 42 36 32 28 28 27 33 38 40 42 37 30 30 30 32 37 43 46 52 59 63 69 73 74 74 76 70 74 73 80 98 79 59 56
41 34 35 35 36 41 44 39 39 40 43 39 34 31 26 27 27 29 33 42 44 34 32 32 32 32 34 38 44 47 49 54 62 67 68 73 81 84 75 85 92 78 59 59
33 35 37 40 36 41 41 40 40 43 41 40 38 38 31 29 26 22 24 30 41 47 39 37 37 34 38 40 43 48 52 56 63 71 79 92 89 87 86 88 90 90 62 64
33 33 38 39 40 43 44 43 43 44 41 44 37 39 32 27 27 29 30 27 29 41 44 45 45 46 48 52 60 66 69 74 80 82 79 79 95 92 90 92 98 90 67 66
34 33 36 39 39 42 42 43 43 45 50 45 38 45 26 29 34 33 32 32 31 32 39 45 44 47 52 54 56 60 67 69 70 82 76 73 80 76 77 86 93 86 64 68
35 34 31 30 33 40 41 41 38 41 44 39 37 40 28 28 25 25 26 31 31 32 36 40 43 45 49 50 61 67 64 66 71 78 88 88 84 84 76 86 81 71 60 76
33 33 30 29 34 39 40 41 37 39 53 57 37 30 28 24 33 34 29 30 30 30 32 32 35 38 48 55 58 58 60 65 71 78 85 78 81 83 80 86 89 63 71 82
32 33 30 31 32 41 42 42 44 45 52 50 41 32 27 27 31 24 25 19 14 25 32 35 35 35 48 53 58 62 63 64 73 81 92 73 67 69 73 80 79 75 79 87
34 31 31 33 40 38 41 45 45 44 42 46 49 34 26 25 26 28 29 29 25 20 16 30 39 40 36 41 52 62 69 77 81 91 59 58 64 68 71 74 78 82 98 97
33 32 31 28 31 31 32 30 35 43 47 43 45 40 31 28 30 31 30 30 28 28 26 21 14 8 13 22 24 26 43 51 69 57 56 62 74 71 65 82 97 99 99 99
32 33 32 31 31 31 30 28 28 34 38 42 53 40 33 33 35 35 32 32 31 32 34 31 26 15 26 28 30 37 46 58 66 69 68 78 86 95 92 96 98 97 99 99
30 30 29 32 28 26 28 25 26 28 42 43 42 39 34 36 35 31 30 30 34 35 35 34 31 27 29 34 49 67 69 66 63 63 65 67 71 86 98 96 98 99 96 90
33 33 31 30 29 27 26 26 30 36 35 40 34 38 35 37 37 34 31 33 34 35 35 35 35 33 38 48 67 77 68 64 64 65 69 79 88 85 90 80 92 100 97 87
32 34 33 32 31 32 30 31 34 35 34 38 38 36 34 32 35 39 36 34 34 34 34 32 35 37 38 41 48 54 54 49 55 66 80 86 86 60 59 99 73 99 71 93
33 34 33 39 35 38 43 36 35 35 33 33 34 32 31 34 37 37 34 31 26 30 31 34 41 40 39 43 44 45 39 50 63 74 73 49 44 87 88 98 94 75 99 99
49 38 40 40 43 69 36 33 34 36 34 34 30 31 32 35 32 27 23 30 34 36 39 39 40 42 41 34 24 24 28 36 42 44 47 52 99 95 94 98 98 100 97 97
54 46 49 46 47 41 40 38 37 35 36 34 24 22 25 30 31 33 37 38 40 41 40 39 35 29 27 27 26 26 31 38 44 45 61 76 96 97 84 98 97 95 93 92
51 48 53 48 46 62 40 38 39 38 32 25 27 28 33 31 31 32 40 42 41 36 32 31 33 31 28 27 28 33 38 44 50 60 95 97 93 99 96 94 93 88 83 72
53 54 55 51 47 43 41 40 41 39 34 34 29 31 32 35 33 39 41 40 36 34 38 37 34 30 29 33 39 45 52 61 65 71 96 100 97 91 86 86 86 75 52 23
45 46 53 52 50 54 43 44 45 34 39 32 27 40 38 36 38 39 39 38 39 43 40 38 32 32 36 45 55 58 63 80 90 100 98 95 88 81 84 72 52 25 17 14
64 47 43 42 43 41 41 41 43 41 37 33 29 47 45 39 41 42 41 43 49 45 43 36 36 39 48 58 63 70 92 100 100 98 91 87 85 72 57 33 18 16 15 14
62 54 52 47 45 44 45 45 46 46 46 37 30 40 46 45 44 45 47 56 50 50 45 42 44 54 70 81 87 96 100 99 95 89 84 77 64 42 21 18 17 16 17 21
62 58 55 45 48 49 49 48 50 48 47 40 35 41 48 47 48 51 55 55 52 60 62 54 58 77 90 94 94 99 98 95 92 85 71 52 29 20 19 18 18 22 27 29
64 64 60 51 50 52 46 52 55 61 49 38 40 47 50 51 51 51 53 56 60 67 73 65 73 96 100 99 97 96 94 94 83 61 38 23 22 22 19 21 27 32 30 17

GFSCGP_700_rhum_066.txt.gz
RH
45 45 41 31 35 34 32 33 33 34 40 42 39 40 39 41 45 45 44 54 38 48 45 36 43 44 41 35 33 29 32 33 25 19 25 31 37 38 38 60 72 76 83 86
45 43 41 39 40 44 38 37 35 38 40 40 38 35 25 25 43 47 42 31 33 38 27 34 40 40 38 37 41 42 41 50 50 56 62 67 73 76 79 78 78 83 86 88
39 41 43 42 42 42 40 39 38 38 40 39 30 30 28 28 32 38 41 38 34 29 24 32 34 36 42 46 50 55 59 62 66 71 72 69 66 69 73 80 91 91 96 99
39 42 40 38 40 41 38 41 42 41 42 31 29 21 26 27 26 26 33 38 29 29 30 28 33 35 36 42 48 53 58 64 69 71 71 74 76 80 87 90 95 99 99 91
38 38 34 38 41 42 39 39 43 46 44 40 36 27 24 25 28 24 23 30 39 32 30 31 32 34 36 41 44 50 53 56 60 67 72 78 84 88 88 95 90 93 95 89
34 34 36 43 40 42 41 44 47 46 45 34 34 33 22 23 27 32 31 28 27 39 40 36 34 35 37 40 42 45 48 53 59 67 75 80 87 93 96 92 87 88 98 99
38 37 37 38 46 42 46 47 36 43 38 32 40 33 26 27 33 28 32 34 33 29 35 43 42 39 40 42 45 50 58 64 70 75 79 81 89 94 87 79 78 84 92 98
34 34 39 36 40 39 44 41 35 34 34 28 35 27 23 27 25 23 25 26 34 32 30 38 45 46 46 49 49 53 58 60 68 71 71 80 91 82 86 74 82 90 85 98
32 29 33 36 33 39 51 43 41 46 40 43 29 29 27 28 24 32 26 26 30 32 31 33 40 46 50 52 53 55 58 60 62 66 71 76 92 81 80 81 86 86 88 95
34 31 34 34 32 38 44 43 42 43 42 37 27 29 23 27 30 25 27 23 20 27 34 33 35 37 42 50 58 63 65 65 63 63 68 78 84 90 74 72 73 82 86 89
33 31 46 30 44 40 47 45 42 41 40 35 34 27 29 27 28 32 28 27 23 24 18 30 35 36 35 40 48 55 64 68 64 64 68 76 90 71 64 68 77 85 99 96
36 34 34 36 41 36 43 40 42 37 37 44 46 36 31 32 31 30 33 32 30 27 26 24 21 26 38 36 39 45 55 62 66 69 76 86 61 64 76 80 89 94 96 100
37 36 34 35 42 34 40 43 42 39 35 38 46 37 30 32 32 30 32 33 32 32 32 33 31 25 11 20 23 26 27 35 46 45 49 63 69 71 86 87 98 96 99 100
32 32 34 33 27 28 35 39 38 36 38 34 33 31 30 35 36 37 33 26 30 31 34 34 35 31 18 27 30 33 36 46 55 63 62 62 66 69 73 81 90 100 99 99
33 33 36 32 29 27 30 28 30 35 32 29 35 32 30 34 37 38 38 32 28 30 34 35 36 37 32 32 38 55 64 69 73 64 55 53 56 64 77 80 87 81 76 100
34 37 38 38 33 32 33 33 32 38 36 38 39 34 33 35 35 34 39 38 34 32 31 35 34 33 37 36 45 60 60 61 56 54 55 54 64 84 90 96 73 50 96 100
37 41 41 37 39 44 42 31 37 40 34 36 35 32 35 35 34 36 37 37 37 36 32 30 29 32 37 43 43 46 53 58 61 64 59 81 88 81 54 46 63 99 98 99
53 42 44 39 39 74 35 34 35 39 36 36 33 33 36 33 27 29 36 35 34 30 30 33 35 39 43 42 42 42 36 27 24 29 39 45 47 47 61 78 99 97 99 100
58 57 45 47 48 39 40 36 34 32 31 37 38 38 36 25 23 22 26 26 32 37 41 44 42 39 35 30 29 28 27 26 28 33 38 40 48 82 99 100 100 98 96 86
60 60 63 50 51 77 38 35 34 36 40 38 35 31 28 24 30 40 30 35 40 43 43 39 32 30 32 32 29 26 26 30 36 42 48 57 74 84 85 97 96 86 79 80
61 60 66 66 61 48 40 37 37 43 36 39 36 38 25 24 36 35 35 37 43 44 34 32 34 37 34 30 28 30 36 44 50 52 59 69 81 99 97 92 83 74 63 45
71 62 60 68 65 68 39 39 41 31 38 40 38 40 30 27 35 34 38 42 45 36 34 37 41 38 32 31 34 42 49 52 53 60 70 88 98 92 84 76 66 52 32 22
77 70 59 47 49 41 39 37 38 40 44 42 42 40 36 27 37 36 40 43 40 38 41 46 43 37 36 38 45 54 59 63 74 90 95 96 90 80 70 60 42 26 23 21
43 33 68 56 52 46 44 45 44 44 46 47 49 46 41 32 39 40 43 43 44 44 50 50 50 48 45 49 58 70 74 77 91 97 96 88 80 68 53 33 24 24 21 19
45 44 41 37 43 55 50 39 39 51 49 46 48 51 45 35 44 44 46 47 47 53 54 54 61 64 59 64 81 80 90 94 99 96 90 82 63 45 27 25 24 21 24 33
44 55 61 60 56 57 54 55 45 47 50 50 54 55 46 39 46 48 50 50 54 56 55 61 70 76 75 85 90 100 95 97 98 91 76 56 36 26 27 25 22 29 38 39

GFSCGP_700_rhum_069.txt.gz
RH
42 40 38 32 30 28 26 25 27 29 31 33 37 37 35 48 63 64 38 69 70 52 36 41 55 64 50 37 42 28 56 46 44 24 18 19 19 22 25 34 59 64 56 70
39 40 35 34 28 28 29 28 29 31 30 32 32 28 27 42 39 63 74 36 28 42 55 30 33 31 28 26 23 30 34 47 34 24 13 16 18 22 25 42 65 69 71 77
35 34 34 39 35 36 34 32 33 31 33 30 27 26 27 34 52 55 61 71 32 24 86 36 33 32 27 24 24 25 30 38 34 37 41 49 54 63 65 65 68 76 81 86
33 33 39 38 36 35 32 32 34 35 32 47 33 30 28 26 35 52 53 63 75 36 73 36 35 38 41 46 48 50 53 55 59 59 64 67 69 69 71 74 84 87 89 92
29 31 38 37 36 34 33 40 36 36 35 31 26 21 27 22 22 30 46 56 61 65 66 43 28 32 37 42 44 48 49 52 58 60 65 68 73 74 77 77 82 78 82 91
29 32 34 32 35 40 37 39 40 39 35 32 29 25 27 28 21 26 30 43 54 61 63 34 34 30 33 38 41 44 47 50 56 56 66 70 75 80 83 84 91 95 93 92
31 34 35 39 38 40 42 40 36 38 35 33 30 27 21 24 26 28 31 37 42 51 64 70 68 66 32 33 36 39 41 45 49 54 60 65 73 78 87 90 96 94 93 82
30 28 32 38 36 38 37 35 37 42 39 29 28 20 20 23 25 26 32 35 44 47 51 66 72 73 38 34 36 41 43 46 56 64 69 73 73 81 88 97 71 72 70 79
26 26 28 32 35 35 34 35 33 37 36 36 27 23 23 22 24 30 27 30 38 39 43 52 66 78 82 42 42 44 49 51 56 60 63 68 70 73 77 83 85 70 72 80
28 27 27 32 36 36 39 40 37 35 37 42 24 21 20 23 27 27 26 29 36 16 32 40 56 67 82 88 52 48 52 53 54 56 65 68 68 70 75 82 92 93 74 78
28 30 29 35 39 33 38 41 37 32 34 37 33 23 26 24 24 26 29 31 32 37 26 30 35 44 70 59 46 46 54 62 66 62 64 67 68 71 76 82 90 72 69 74
32 31 29 36 34 31 33 35 36 34 32 34 33 32 28 28 26 32 30 34 35 38 39 24 21 26 38 37 39 42 45 59 70 74 74 66 68 67 75 83 64 70 80 94
33 31 33 30 32 39 37 37 36 36 34 34 52 38 28 29 32 32 31 31 35 39 41 38 30 29 24 27 34 40 51 52 55 59 58 63 70 78 77 71 74 80 82 90
36 31 33 32 30 33 35 31 33 35 39 39 34 28 25 26 29 31 32 33 32 36 39 46 54 34 33 16 27 32 27 27 29 36 50 53 56 61 64 62 67 73 82 95
40 34 32 29 28 25 25 28 29 32 32 33 31 28 23 26 29 28 35 37 37 38 29 34 55 61 35 35 24 25 27 30 34 45 59 63 65 55 53 55 66 83 94 99
43 40 37 29 29 28 25 24 25 24 24 25 25 25 25 28 28 30 36 41 38 36 33 29 29 54 36 36 37 34 37 47 52 64 64 60 58 58 58 62 81 100 99 83
48 48 36 36 32 31 30 29 27 27 27 28 30 29 29 28 30 32 34 43 38 38 37 35 34 33 33 33 36 42 56 64 63 60 58 58 62 69 74 94 94 66 50 63
54 52 42 45 42 59 38 37 32 30 30 30 32 30 28 29 31 36 29 30 26 34 40 40 38 30 28 32 36 46 52 56 58 54 44 37 37 46 52 49 50 52 71 91
71 60 48 52 51 40 33 35 34 34 31 30 30 30 30 32 34 31 24 23 22 21 22 24 28 36 43 46 46 40 33 29 28 27 26 27 31 37 38 40 46 80 99 99
71 76 61 62 54 60 38 36 38 35 34 35 32 33 35 37 34 31 31 34 30 30 30 35 41 44 39 32 30 32 31 28 25 25 28 33 38 43 47 58 71 84 92 90
72 67 85 65 59 43 35 37 40 43 34 32 35 36 37 42 41 33 22 33 36 33 37 42 43 35 31 34 36 32 28 25 26 31 37 42 45 52 63 74 90 89 84 74
76 73 76 78 69 66 42 37 39 29 37 44 43 41 41 41 38 37 25 33 34 37 41 45 38 32 36 39 36 32 30 31 38 44 47 49 57 70 84 89 86 80 68 53
93 84 72 64 65 59 47 41 39 37 38 46 39 47 43 46 43 42 29 35 36 41 47 44 35 35 42 42 37 34 35 42 49 55 57 62 76 87 90 86 77 63 46 30
50 42 50 70 66 60 52 46 44 44 42 43 45 49 48 50 48 48 36 32 40 43 47 40 37 43 47 47 47 46 48 55 64 68 75 84 94 94 87 76 58 40 29 30
40 45 56 48 38 39 61 55 48 49 46 43 51 50 46 48 50 50 37 36 42 44 43 42 44 49 52 56 61 62 61 68 74 78 85 92 95 87 75 54 36 30 32 26
46 56 41 45 38 48 37 56 33 46 55 52 49 46 46 50 56 55 40 42 46 48 48 48 50 55 56 63 71 76 81 84 86 92 96 98 92 71 53 38 35 31 26 29

GFSCGP_700_rhum_072.txt.gz
RH
47 44 39 36 34 33 28 25 23 29 34 32 28 33 44 46 47 49 69 79 84 88 75 41 40 33 34 52 74 66 69 68 70 77 63 46 40 42 46 44 46 49 56 54
43 41 36 35 32 27 25 26 24 28 30 29 27 32 32 40 41 24 29 65 73 61 53 36 34 50 41 31 32 55 57 66 53 49 42 24 27 32 35 33 39 60 63 64
40 36 37 34 34 30 29 29 28 32 30 33 32 32 28 33 45 54 62 46 38 29 44 32 27 24 22 22 22 21 34 49 41 27 14 14 16 19 22 30 33 64 68 66
35 34 34 33 35 32 31 30 31 29 31 29 34 37 32 29 36 51 55 57 34 25 23 39 32 32 26 19 18 22 19 31 31 24 30 33 42 48 53 58 62 67 72 76
31 32 32 36 32 32 32 31 36 34 32 32 38 43 26 29 32 38 47 54 64 34 35 25 26 32 36 39 42 45 45 51 56 66 83 56 60 62 67 69 63 76 74 74
30 30 28 28 34 32 32 33 36 35 35 36 30 29 30 34 26 24 36 48 56 66 60 43 27 28 33 39 40 42 46 49 46 46 59 57 62 66 71 73 77 79 89 90
29 28 27 30 31 31 36 36 38 46 43 42 33 30 23 27 26 26 28 37 46 55 60 65 68 32 30 32 34 38 42 42 48 44 50 60 62 69 73 76 76 81 84 78
30 27 27 31 33 33 35 37 42 79 56 38 35 26 16 23 25 26 28 32 40 43 51 61 66 69 50 29 31 34 36 38 42 46 48 57 64 70 74 81 84 96 89 74
28 27 27 32 34 34 36 35 33 38 45 46 35 28 21 24 23 24 27 31 34 40 46 49 56 70 69 67 34 32 36 41 42 44 49 61 67 69 71 74 77 79 75 75
29 28 26 26 32 32 33 36 34 33 47 47 26 24 38 30 25 28 24 28 32 38 40 46 51 58 72 75 73 48 38 39 43 46 51 57 61 64 68 66 76 78 79 80
29 28 26 24 28 29 31 32 42 34 31 44 48 33 36 30 27 25 26 28 31 37 35 25 46 55 64 71 78 87 66 58 53 51 51 53 56 65 70 72 75 77 78 77
29 29 30 26 28 31 32 32 38 37 33 36 38 41 29 31 28 27 29 30 33 35 39 37 20 28 52 70 80 92 98 98 74 75 74 64 65 64 73 76 75 78 87 76
29 29 32 32 29 33 33 30 32 33 33 35 47 42 34 28 28 29 30 30 29 33 38 44 41 20 20 27 53 92 100 96 60 98 98 86 62 59 66 69 75 79 73 69
33 31 32 36 34 34 33 28 31 34 37 41 37 33 33 28 27 29 32 33 42 31 35 38 48 53 32 26 28 29 49 42 44 53 49 48 57 60 67 74 68 66 63 64
40 40 33 31 30 29 31 33 34 32 31 34 41 34 30 26 25 28 31 37 41 42 36 37 38 58 66 46 34 31 26 19 26 30 41 58 56 57 66 68 68 59 61 63
41 47 36 36 30 30 28 29 29 28 27 28 28 28 27 24 22 28 28 29 37 42 41 38 38 54 79 61 38 40 39 38 35 40 42 45 56 62 66 65 64 69 71 79
49 45 41 43 37 30 30 27 25 23 24 24 24 24 25 28 28 28 29 32 33 40 38 34 38 48 38 41 36 33 33 40 42 42 51 59 64 65 63 64 66 72 81 98
70 46 45 48 40 54 36 30 28 28 28 28 27 26 28 28 28 28 32 32 34 36 29 21 30 40 42 40 38 35 28 39 53 59 62 61 63 60 45 32 38 48 53 54
74 63 60 50 52 45 36 36 35 33 33 32 29 29 29 29 30 34 34 33 29 23 23 23 21 27 28 25 25 34 44 54 59 55 40 31 28 27 30 35 40 44 46 54
73 77 72 67 56 63 46 36 36 34 37 33 31 31 31 32 36 38 38 33 23 28 32 30 29 29 30 34 42 44 41 34 32 32 29 26 27 31 36 42 45 49 58 67
78 83 80 72 66 53 46 42 38 40 40 28 30 34 34 34 36 39 37 38 35 21 27 33 33 35 40 43 41 36 33 34 34 30 27 27 31 37 40 44 51 63 76 82
82 80 80 68 64 63 44 40 36 35 35 35 39 40 39 39 39 37 39 39 42 34 23 31 36 40 44 41 34 33 36 38 35 31 30 32 37 44 49 57 69 82 86 86
59 98 72 63 57 51 47 45 48 45 41 40 51 46 47 48 42 44 46 46 46 38 30 35 39 44 46 39 33 36 40 42 38 36 37 43 52 57 62 70 85 89 87 79
58 49 89 75 71 83 72 60 56 49 43 42 45 42 45 48 48 45 43 43 48 43 36 40 43 51 49 38 36 40 46 47 48 48 52 59 66 72 78 86 91 86 80 60
46 49 42 43 38 45 61 61 70 61 57 50 48 44 47 52 51 48 45 45 51 49 39 43 51 55 49 40 38 45 51 55 59 64 71 79 83 87 95 96 93 80 54 43
44 37 40 51 29 55 56 50 37 54 56 59 54 39 48 55 52 51 54 52 58 54 43 46 52 56 50 41 42 50 56 61 68 75 82 96 99 98 97 97 75 67 50 41

GFSCGP_700_rhum_075.txt.gz
RH
35 39 38 16 29 37 37 35 31 25 31 35 34 30 32 38 52 58 49 55 59 57 32 43 34 34 58 62 47 38 35 33 34 32 34 38 51 53 58 57 54 55 54 52
53 47 22 19 35 37 38 26 26 25 32 33 29 29 31 36 43 54 43 65 40 23 19 22 33 37 40 52 52 50 51 52 48 44 40 48 39 37 42 46 49 47 48 55
47 36 27 34 35 36 32 28 27 29 30 30 33 32 32 35 40 42 48 60 50 25 18 22 22 21 25 27 39 42 42 40 38 43 23 24 34 37 38 34 32 36 52 63
42 39 39 39 38 34 33 31 31 34 32 31 31 40 35 37 37 43 43 55 59 43 20 22 28 27 21 15 17 18 27 29 26 17 12 14 21 27 28 32 30 31 51 67
28 39 38 37 35 35 32 32 32 34 37 34 34 38 32 35 34 37 45 47 52 52 23 17 24 32 32 32 27 21 30 32 32 34 34 34 40 43 48 53 57 64 66 68
31 29 35 34 32 34 33 33 32 35 36 45 35 41 39 31 32 33 36 43 46 46 50 29 21 28 34 36 36 36 31 34 39 42 43 44 53 58 60 57 59 68 77 82
33 32 32 32 31 29 34 32 44 57 56 63 38 43 37 30 28 30 33 32 39 48 54 56 52 26 27 32 32 32 31 30 34 39 42 52 67 65 68 71 65 69 74 84
39 34 32 30 29 29 31 34 43 70 75 61 43 40 28 24 29 28 29 36 40 44 51 53 52 51 54 31 30 32 34 35 42 43 43 58 61 62 64 70 70 74 80 86
32 33 31 28 28 30 33 34 35 50 50 60 48 36 31 27 24 24 25 28 34 43 45 48 50 52 50 54 57 37 32 35 39 40 42 52 61 63 66 70 70 72 78 84
32 33 30 30 26 32 32 36 36 37 70 72 42 37 37 28 28 25 26 27 32 43 49 50 57 54 53 55 50 49 60 46 34 37 38 43 48 64 67 69 68 68 83 79
33 34 32 32 28 31 32 33 34 40 41 59 57 41 33 29 28 28 26 28 27 28 29 28 50 57 54 55 54 56 69 67 75 70 51 42 46 50 64 67 71 75 91 81
34 35 41 37 34 28 29 30 33 40 46 36 35 41 31 31 29 27 26 27 31 32 34 32 22 50 59 63 67 66 77 72 65 46 77 82 75 66 89 99 99 95 96 83
41 44 60 43 36 30 30 30 31 31 37 39 58 48 34 34 29 28 28 29 32 32 34 35 32 27 44 52 59 67 82 74 73 59 78 80 83 71 85 96 89 75 76 78
46 70 70 53 41 34 29 29 31 33 35 34 35 39 37 36 33 30 27 28 30 30 35 34 35 40 36 27 44 59 60 56 51 63 66 61 62 62 75 66 65 68 76 67
51 71 69 49 36 38 36 33 33 30 30 37 37 38 35 35 30 28 31 31 33 34 38 37 37 37 40 41 33 29 29 32 39 45 44 47 47 48 60 62 60 70 66 60
55 56 58 48 41 32 41 37 34 31 31 34 33 35 35 33 32 27 30 29 34 40 33 39 38 38 40 44 36 33 33 41 41 43 45 43 46 49 49 50 58 66 67 69
48 55 50 51 43 38 38 34 32 32 32 30 29 27 27 26 26 26 29 29 30 32 35 36 38 39 39 38 38 39 41 34 35 37 41 44 45 47 54 62 69 70 69 71
56 55 62 58 55 57 41 35 34 31 35 30 29 27 26 27 27 28 29 29 31 32 33 33 30 25 32 29 34 47 45 43 40 38 31 44 50 54 64 70 68 54 35 35
67 62 61 55 55 52 44 40 36 32 32 31 28 27 26 28 29 28 29 31 34 34 33 26 20 20 22 21 25 44 40 31 24 26 39 56 68 68 49 33 28 25 27 36
79 68 61 68 66 70 50 40 38 36 36 34 31 26 30 30 31 33 33 32 36 36 33 29 15 20 28 29 29 28 30 36 43 49 47 36 32 31 27 25 27 31 38 41
69 75 90 87 88 61 52 37 42 43 38 32 29 30 33 32 32 33 36 36 37 31 37 38 32 18 21 30 32 35 40 42 36 34 35 35 34 30 27 29 35 40 44 52
72 84 88 93 91 92 53 47 44 40 38 34 35 37 43 41 39 39 39 39 34 36 40 42 42 37 25 30 37 42 42 37 34 36 38 38 36 33 34 37 41 48 56 69
60 86 74 70 74 65 53 50 56 54 43 47 41 39 46 45 44 40 37 37 39 44 43 41 44 43 31 34 43 46 41 36 36 40 42 42 42 42 45 53 59 64 71 85
51 45 58 62 64 68 66 51 53 58 52 49 51 49 48 50 45 43 49 48 45 45 46 47 50 45 40 46 50 50 44 37 37 42 45 47 51 56 60 70 79 91 100 100
49 52 52 51 50 87 66 71 62 58 57 63 65 50 44 49 48 50 50 51 52 52 54 55 55 50 50 52 55 55 52 44 41 45 50 56 64 74 85 98 100 98 96 96
43 47 62 54 44 50 37 44 43 49 77 70 67 64 56 60 54 54 54 56 57 59 58 57 59 58 56 53 56 58 58 54 48 50 62 76 94 100 100 100 97 96 95 95

GFSCGP_700_rhum_078.txt.gz
RH
18 35 30 14 24 15 34 38 40 34 27 29 34 34 31 40 38 37 37 26 32 42 34 20 25 45 38 85 100 93 89 96 98 98 97 98 100 99 96 88 83 76 65 63
34 20 16 14 21 22 32 39 38 32 27 32 34 31 32 34 36 37 35 33 34 22 27 18 21 25 40 32 31 31 28 29 38 58 68 69 59 67 60 52 68 69 70 61
28 24 17 20 20 32 36 38 36 30 33 33 30 30 32 33 39 37 36 33 39 35 24 23 18 17 23 38 38 39 38 35 31 36 41 44 49 48 45 51 60 65 59 50
34 26 27 36 31 39 41 36 33 34 35 37 34 39 32 35 38 38 38 34 28 46 25 22 24 21 14 21 33 38 36 32 30 20 24 24 25 26 31 40 47 46 43 46
26 22 23 27 37 39 41 38 35 33 34 34 35 38 29 35 41 39 39 37 34 38 50 20 24 28 26 23 16 19 30 26 21 15 16 19 25 25 27 29 29 31 35 42
27 21 37 26 33 36 36 37 33 34 35 45 36 38 32 33 33 35 36 36 35 37 46 36 25 27 28 29 29 28 30 30 30 32 34 36 38 41 43 46 50 52 56 61
36 26 28 35 36 36 35 35 41 47 57 59 42 45 37 33 32 32 32 33 34 37 44 49 38 27 20 22 27 29 30 32 30 30 34 38 44 49 52 56 59 62 66 68
41 38 27 25 34 33 33 32 38 58 70 65 48 44 34 30 28 35 31 32 33 36 43 49 51 51 48 27 24 27 27 30 31 33 36 41 51 54 56 60 64 66 69 74
41 41 25 24 32 32 32 33 33 35 55 62 48 40 37 30 31 30 28 28 30 38 44 45 49 50 51 50 51 46 30 31 33 36 39 41 43 52 58 64 67 68 71 74
38 39 28 30 29 32 31 30 36 43 73 69 51 47 40 26 25 27 27 25 30 32 38 46 52 55 54 52 51 53 52 52 48 42 39 38 40 44 56 66 76 75 73 79
42 40 34 31 31 32 30 31 36 36 40 70 61 42 33 33 28 28 27 26 25 28 34 41 34 37 49 49 54 56 57 57 54 52 55 57 52 45 52 69 78 84 93 94
34 42 43 31 34 34 31 29 32 38 48 43 42 42 33 29 28 27 25 26 27 28 30 32 32 30 26 43 49 55 61 63 65 62 66 67 59 84 93 91 91 88 93 98
41 41 44 37 32 34 38 36 30 31 34 41 61 46 34 33 34 34 31 28 29 30 33 33 35 36 33 25 38 45 52 63 66 68 72 81 70 79 79 82 72 88 95 78
50 37 39 42 35 39 38 36 34 30 35 39 40 42 39 36 36 35 34 33 29 30 31 31 36 35 34 34 25 24 29 40 32 47 46 60 60 71 69 74 78 81 71 66
56 41 36 37 36 42 45 47 38 33 32 34 32 32 32 34 37 40 33 29 30 30 31 34 34 36 36 37 38 36 29 31 31 32 38 48 49 45 54 56 61 62 68 67
60 50 42 43 41 42 57 59 48 34 32 32 33 32 34 35 34 34 35 28 29 31 33 32 32 34 35 39 38 39 41 38 36 43 50 52 48 50 48 51 56 57 59 60
93 76 54 63 52 63 74 66 56 42 36 32 33 31 32 35 33 33 31 27 28 31 31 30 32 33 33 35 38 38 41 51 54 51 47 47 47 44 49 52 55 56 58 64
97 98 64 55 58 90 73 52 46 42 39 35 33 32 32 30 31 26 26 26 27 30 30 32 34 36 34 32 29 32 33 37 50 54 51 46 44 39 46 64 64 65 68 76
92 99 89 66 64 71 69 48 41 42 44 32 33 33 29 28 27 26 28 28 29 32 34 36 34 33 26 22 28 29 28 34 57 54 50 42 37 38 55 58 65 72 45 30
58 100 93 70 64 81 53 47 46 42 45 35 33 34 31 28 28 28 29 31 32 34 35 36 36 29 30 22 22 31 32 34 36 44 36 43 51 59 57 41 32 29 27 26
97 99 96 82 82 68 58 50 43 47 44 37 36 34 32 32 33 31 33 34 36 36 37 36 30 30 37 36 26 23 29 34 36 41 45 42 35 34 35 35 34 31 32 37
63 98 92 98 91 89 56 56 48 46 43 38 36 42 40 38 34 32 32 36 39 39 37 35 38 41 38 39 41 32 30 36 44 42 34 34 36 38 40 40 38 38 40 45
67 62 95 76 66 81 59 58 64 57 56 44 35 39 36 38 38 42 41 40 40 39 39 40 41 41 41 39 46 42 37 45 46 39 35 35 38 40 42 44 46 50 56 65
41 44 67 56 48 39 54 66 65 61 69 59 38 50 48 49 53 49 48 47 48 49 48 47 47 46 40 39 45 51 43 48 51 46 41 38 41 44 48 53 61 74 90 100
65 59 55 51 46 45 36 34 37 61 65 68 57 53 52 52 54 55 55 57 55 53 53 53 51 49 47 44 48 55 54 48 54 57 52 48 51 58 67 80 90 99 100 100
45 57 63 58 43 53 50 52 68 73 76 65 58 52 55 59 55 58 56 52 57 55 55 57 59 57 54 54 58 62 64 63 65 69 70 72 77 87 96 100 100 100 99 98

GFSCGP_700_rhum_084.txt.gz
RH
17 26 23 20 20 21 23 24 26 20 35 37 30 30 32 33 34 33 36 38 46 34 22 17 35 40 97 88 91 77 99 100 98 98 100 100 100 98 100 100 100 99 92 93
18 23 21 22 26 26 28 29 20 32 34 37 34 32 33 32 34 34 33 37 40 32 21 21 28 30 70 80 89 83 83 99 100 100 100 99 100 99 100 100 99 97 99 92
17 17 17 21 28 30 31 32 18 23 33 37 37 35 35 35 35 33 31 32 30 32 18 23 18 33 26 27 54 68 92 91 83 100 100 100 100 99 98 97 97 88 97 94
36 23 25 32 30 29 31 22 20 18 30 42 42 46 35 33 31 30 32 32 33 37 32 21 24 17 25 30 18 24 47 75 88 82 96 99 99 98 99 99 100 99 95 96
36 29 24 31 24 37 29 23 21 27 43 46 42 46 34 32 27 24 34 34 33 36 39 23 25 24 19 25 31 14 14 23 30 38 46 54 69 88 98 97 99 97 97 99
39 33 31 27 24 35 30 27 31 47 46 61 41 40 33 31 32 24 27 33 36 35 40 42 22 21 25 23 24 24 20 16 17 22 25 25 28 32 38 38 41 50 60 50
44 33 39 35 30 34 32 40 51 56 64 63 37 38 34 23 25 32 33 32 33 32 36 44 44 44 27 24 25 25 25 26 27 28 29 30 31 30 30 31 32 37 40 42
23 26 21 37 32 35 31 35 50 60 67 54 43 51 33 22 25 32 30 32 31 30 34 38 44 48 49 48 30 24 24 24 26 30 32 33 36 37 38 38 39 38 36 38
44 42 27 29 28 27 40 50 33 43 61 63 44 39 34 31 20 30 25 29 29 30 33 38 44 46 49 51 49 46 28 27 26 28 32 36 40 40 42 43 44 47 48 49
46 54 40 40 36 34 31 33 43 49 64 71 59 50 35 33 32 30 25 25 27 27 27 36 41 46 44 50 54 51 50 37 31 32 33 36 39 43 46 49 53 57 62 66
78 55 44 40 43 38 36 34 38 41 40 60 66 50 34 26 29 32 28 28 27 27 21 25 33 35 40 47 58 56 52 52 51 42 36 38 40 43 46 48 54 62 67 71
53 92 86 40 31 43 42 35 30 41 54 48 40 40 31 30 36 35 29 27 27 28 26 28 30 32 31 28 29 28 52 52 50 54 59 61 59 61 61 60 58 59 60 64
55 92 96 66 44 32 37 40 44 38 40 42 52 43 34 30 31 33 30 29 28 27 28 28 29 29 31 34 36 32 26 35 51 56 63 58 58 61 67 64 71 69 75 78
40 61 74 96 84 65 76 37 32 42 44 44 43 41 36 35 34 34 31 30 27 30 28 28 30 29 31 34 36 35 35 25 32 38 51 55 58 61 71 62 64 66 62 62
92 76 59 64 80 92 65 61 44 32 35 42 41 39 36 34 33 34 33 35 35 33 32 30 30 29 29 33 34 34 34 35 33 37 38 37 36 34 48 58 59 59 60 61
100 90 75 62 63 75 79 58 46 41 37 37 42 45 37 35 32 32 32 37 37 35 36 33 33 31 30 30 31 29 32 35 39 44 42 42 45 43 43 46 53 56 54 54
97 98 83 76 69 87 87 56 44 42 42 41 43 42 41 32 31 31 32 34 37 34 36 34 32 31 31 31 31 33 33 33 36 41 48 52 54 63 56 49 48 50 54 56
80 95 98 84 68 97 59 53 49 44 41 39 41 40 46 37 33 34 34 33 32 31 34 35 28 31 32 32 32 35 36 37 35 49 57 59 66 67 61 54 67 71 72 72
61 68 98 86 90 88 72 64 50 52 42 38 33 33 32 46 43 36 34 33 32 33 33 33 28 31 32 33 35 36 37 31 27 34 52 56 52 50 58 79 86 80 84 55
65 68 94 98 97 93 51 83 70 57 53 38 38 42 36 47 49 37 33 32 31 32 30 28 28 30 36 35 36 37 31 29 29 27 29 35 40 44 49 58 55 46 48 64
98 99 97 98 97 73 53 66 92 79 51 63 62 61 51 50 49 39 35 30 29 32 31 28 27 32 39 38 38 32 32 35 35 36 37 38 38 36 36 40 46 59 70 60
64 76 92 98 97 91 93 64 99 99 84 68 60 68 64 64 59 46 42 34 32 30 29 30 32 38 42 40 33 35 40 39 39 40 41 44 47 44 42 47 51 44 42 45
56 61 73 72 68 64 59 83 91 86 95 94 64 69 79 80 68 58 59 46 43 41 42 39 43 43 37 35 39 44 43 45 45 46 48 48 53 54 52 52 47 47 50 54
51 53 73 74 57 45 61 64 71 72 66 80 100 83 84 90 92 71 59 51 42 39 42 41 40 39 40 44 46 49 53 56 58 56 55 56 58 64 66 66 67 69 74 76
60 61 63 62 66 77 46 51 69 62 61 64 88 97 98 90 96 71 57 50 46 46 48 43 46 48 50 54 59 62 64 61 61 64 65 64 68 75 80 88 96 100 98 98
60 45 50 46 71 96 66 34 54 54 63 61 74 94 99 98 99 84 72 73 80 70 68 63 71 75 74 77 78 80 75 77 71 68 69 73 76 79 78 81 84 86 88 93

GFSCGP_700_rhum_087.txt.gz
RH
20 28 30 24 21 23 26 24 23 18 20 20 33 33 29 30 31 34 33 36 38 31 24 17 30 33 80 95 96 97 87 98 98 98 100 100 99 100 100 100 99 88 91 100
24 29 22 23 25 26 26 24 24 18 20 29 34 34 31 31 33 33 33 34 33 23 21 22 21 27 60 82 76 73 73 95 98 98 100 100 100 100 100 100 100 98 90 92
26 25 21 23 26 28 25 27 24 23 22 26 27 36 35 33 32 33 33 33 34 24 22 23 16 28 26 54 75 81 80 82 96 100 99 99 100 98 99 100 100 100 99 98
43 33 29 32 27 23 24 23 27 27 36 32 36 41 39 29 28 30 26 29 34 35 24 21 20 19 29 20 26 52 71 87 93 97 96 99 97 97 99 99 99 99 98 97
33 29 30 29 35 36 27 32 32 32 35 39 41 48 39 35 28 28 21 32 32 36 30 21 20 21 21 27 12 15 36 68 85 79 89 96 100 99 98 98 99 98 98 98
33 35 36 33 29 28 33 42 45 45 47 55 50 45 39 31 30 26 33 27 30 36 38 32 20 20 22 22 22 18 17 20 29 41 48 55 80 78 99 99 98 100 94 82
32 31 26 40 36 35 41 53 50 58 60 48 41 41 38 29 25 21 31 34 33 37 39 39 39 28 23 23 23 22 23 24 24 24 24 25 34 36 57 66 71 76 84 82
23 27 17 24 32 34 31 46 46 43 53 43 42 45 38 30 24 23 30 31 31 32 35 40 42 41 43 34 24 23 22 24 26 28 30 29 28 29 30 34 38 42 50 51
55 35 25 25 19 18 39 54 36 39 56 60 50 41 35 31 23 21 31 29 30 27 28 34 40 45 48 45 47 30 25 24 27 30 32 33 35 35 36 36 36 36 38 40
62 58 38 44 43 41 40 37 52 51 45 48 48 46 36 30 21 26 26 27 30 27 31 34 39 44 46 48 54 51 45 30 29 29 32 35 39 40 40 40 42 44 45 43
40 77 47 46 45 43 40 42 44 47 44 41 46 46 34 31 28 28 30 29 30 27 25 22 33 40 47 46 50 53 52 51 43 31 30 32 34 38 41 44 46 49 50 50
50 68 92 60 36 43 44 44 40 41 40 54 46 41 32 30 31 28 32 31 28 27 25 24 30 34 34 37 43 50 56 54 51 54 51 38 38 40 42 44 47 52 55 60
38 72 68 57 49 47 49 45 45 45 45 46 53 45 36 35 33 29 32 30 28 28 27 26 28 30 33 31 31 35 31 34 50 51 52 59 54 56 58 72 75 80 75 79
49 54 48 48 69 70 69 60 62 64 62 47 49 44 41 37 34 30 28 31 29 28 27 28 29 29 30 32 34 35 32 28 32 48 58 54 54 60 63 68 72 73 78 80
46 89 85 76 63 38 54 63 54 54 57 60 44 44 42 34 37 34 28 34 31 30 27 28 28 29 30 30 34 36 34 34 24 29 33 35 37 38 43 53 67 68 64 59
97 90 93 94 64 58 49 50 47 47 50 49 59 49 40 36 36 36 33 30 34 36 35 32 30 32 30 29 29 34 33 34 35 33 37 39 39 40 42 42 50 50 51 54
89 87 73 89 78 79 72 50 54 54 44 40 54 45 44 41 37 36 33 32 31 32 43 38 36 35 34 32 31 30 30 32 35 40 46 49 46 42 50 55 58 58 51 52
82 84 84 92 75 75 32 44 75 78 55 58 56 53 46 47 44 40 36 33 30 29 32 38 37 38 32 32 32 31 32 33 34 36 38 46 52 52 57 64 68 72 62 59
56 76 100 91 72 61 36 54 62 68 57 67 61 55 47 41 39 40 38 37 35 32 32 33 34 34 35 30 32 34 33 36 39 39 40 39 48 51 53 59 60 43 49 68
70 77 94 90 87 77 54 48 44 61 79 83 77 74 66 59 43 32 34 39 36 35 34 33 34 34 35 29 32 34 36 40 37 38 31 28 25 30 34 36 38 40 42 50
98 100 100 97 94 78 68 58 61 76 68 82 92 91 79 69 56 53 39 40 40 36 33 34 32 33 33 30 32 34 39 39 38 33 31 34 36 39 41 42 42 41 44 48
73 84 96 97 97 91 81 71 80 72 79 98 100 100 95 71 66 69 49 49 44 37 32 31 32 33 32 30 34 39 40 40 36 33 37 41 43 42 42 45 48 49 51 75
69 67 73 80 76 94 77 65 65 83 88 81 98 99 100 78 64 65 56 52 47 46 40 40 39 35 38 39 43 44 38 35 37 41 44 44 46 50 54 55 57 59 60 66
55 51 59 66 55 53 54 50 61 68 84 80 75 85 99 96 84 69 66 63 58 54 53 54 52 48 51 48 42 45 46 48 47 50 55 58 61 62 62 63 67 73 80 86
62 63 56 48 37 48 50 58 84 67 82 85 68 72 96 100 96 91 90 86 71 71 76 69 66 59 55 53 53 52 52 52 62 65 65 68 69 69 72 77 80 85 94 97
68 69 73 58 53 64 43 63 67 72 77 82 65 72 82 93 99 100 98 95 88 93 100 93 98 96 74 69 68 76 70 76 90 87 86 88 83 80 79 77 74 78 84 87

GFSCGP_700_rhum_090.txt.gz
RH
9 35 43 39 30 37 31 29 26 24 32 27 26 26 29 30 34 31 32 34 34 33 17 18 16 23 61 72 86 91 87 95 96 98 100 100 100 100 100 100 99 98 88 70
49 42 36 38 45 48 36 32 29 29 31 26 26 25 29 31 32 34 33 33 33 34 18 16 16 24 28 62 78 83 86 85 84 98 99 99 98 100 100 99 99 98 88 93
41 37 41 45 31 45 38 36 34 33 32 35 29 27 24 27 32 31 29 32 32 33 23 16 17 21 15 39 69 74 78 82 84 85 98 99 100 100 99 100 99 99 98 98
39 33 36 31 42 45 34 33 39 42 37 28 34 24 24 31 31 30 33 28 30 32 29 18 18 18 22 12 27 53 74 82 85 98 98 96 98 100 100 99 99 100 100 87
38 31 36 44 39 31 40 35 41 40 38 36 31 26 22 32 32 29 34 28 27 31 31 23 18 19 18 15 14 21 45 71 74 82 98 99 100 100 100 100 100 100 100 82
44 39 43 41 45 43 41 51 48 46 43 40 35 25 22 26 27 29 33 31 33 29 34 28 21 19 20 19 18 18 20 33 69 77 80 88 99 99 98 99 100 98 99 100
33 36 42 38 43 46 49 41 36 44 43 37 27 30 25 31 30 29 29 39 33 30 35 31 28 22 20 20 20 21 21 22 25 35 54 61 61 99 92 96 100 100 100 99
25 23 25 31 31 36 41 43 36 42 36 29 31 34 28 35 33 24 22 39 34 32 34 33 32 31 26 21 20 20 22 23 23 24 25 27 35 42 69 85 86 87 98 95
45 25 30 34 35 28 37 45 40 41 36 42 32 37 38 32 35 33 22 34 34 30 33 32 36 33 37 40 23 22 21 24 26 28 28 27 28 28 31 40 50 53 62 70
66 53 50 49 42 38 31 37 44 44 43 40 28 33 31 33 32 32 31 31 30 30 27 29 32 34 41 39 46 37 25 24 27 30 32 34 34 34 34 34 35 36 38 41
56 69 53 48 45 38 42 43 44 41 40 35 34 27 35 35 33 33 33 32 30 31 27 29 32 38 41 43 44 49 49 36 26 26 30 34 38 38 38 39 40 41 41 41
50 80 69 68 43 52 54 42 40 40 37 44 39 34 34 33 38 34 38 33 34 33 30 27 27 36 41 44 43 46 48 50 52 40 29 30 32 35 38 41 42 42 42 40
39 81 60 50 59 52 62 62 61 69 56 42 47 38 39 39 36 33 33 33 32 28 27 27 29 26 37 39 36 40 45 51 56 56 54 42 34 34 35 38 42 46 50 56
53 65 44 34 45 65 63 67 64 66 70 50 45 40 38 37 39 33 33 28 32 32 27 27 25 26 30 32 32 30 31 32 29 42 52 54 59 57 46 43 63 72 70 74
44 54 60 67 65 31 56 55 60 61 57 64 59 54 41 39 42 33 37 37 31 34 31 27 28 28 29 29 31 31 30 25 26 24 34 49 55 56 61 63 65 68 72 74
94 82 84 85 71 60 46 37 45 51 55 49 51 56 49 48 40 39 34 33 32 34 39 30 28 28 28 29 29 31 35 30 26 25 29 33 34 35 37 42 50 63 67 71
99 97 100 62 68 71 59 58 43 38 44 55 61 52 50 46 42 34 33 34 34 33 31 36 38 35 30 30 32 30 32 34 32 32 33 35 38 39 39 39 41 42 45 48
100 100 100 73 66 52 29 49 53 49 55 62 74 74 65 53 46 42 41 38 37 33 31 30 33 38 38 38 38 32 32 33 31 33 37 43 46 48 48 45 44 54 60 61
97 100 99 82 54 44 45 56 44 64 51 67 48 82 93 74 62 57 56 52 41 36 34 33 30 31 41 41 40 40 34 33 32 31 33 34 36 38 47 54 55 54 57 71
100 100 97 79 71 59 68 78 64 76 65 84 82 91 76 69 83 63 56 38 42 40 41 38 33 33 34 36 38 37 34 34 34 36 38 38 38 40 39 43 44 48 42 39
100 99 99 92 88 69 63 55 62 83 74 72 71 97 79 81 99 82 64 45 33 34 37 40 34 33 33 34 35 36 35 36 36 36 40 41 39 38 30 29 31 34 37 39
94 98 98 98 96 79 79 91 86 96 80 95 93 88 94 99 80 84 70 63 51 42 34 34 36 35 34 33 34 37 38 35 36 36 43 42 40 31 33 36 38 42 44 46
78 78 72 79 69 78 76 71 70 89 91 83 96 88 91 99 100 92 80 71 63 50 46 42 38 36 34 34 34 36 34 34 42 49 48 41 35 40 42 46 47 48 53 57
64 65 77 76 69 62 66 75 55 64 90 80 92 99 94 99 98 94 82 77 70 62 50 47 45 37 35 37 40 47 41 52 60 50 40 44 47 50 58 56 61 62 67 72
71 70 72 70 70 70 69 68 71 67 84 75 89 96 90 99 98 99 97 88 83 74 66 60 58 54 54 49 62 62 54 53 54 59 61 61 63 63 65 73 86 89 85 93
85 78 76 75 74 76 70 72 52 68 61 61 83 91 94 90 100 93 99 100 98 86 80 75 78 80 71 67 64 65 68 71 78 85 83 78 87 92 97 95 94 87 82 79

GFSCGP_700_rhum_096.txt.gz
RH
26 21 23 30 34 35 35 33 31 28 26 25 24 24 24 24 20 22 22 26 31 38 60 61 36 20 15 14 49 65 76 78 77 75 79 86 89 94 100 100 100 100 100 100
32 23 26 24 27 31 31 34 33 33 29 29 27 24 26 26 23 20 18 22 28 38 53 51 35 21 16 14 35 59 67 72 76 75 80 96 100 98 100 98 100 100 100 100
33 23 22 25 23 27 32 34 36 41 37 35 30 28 28 28 27 23 20 22 25 36 47 46 36 24 17 14 17 42 68 70 69 69 67 94 99 100 97 97 100 100 100 98
36 32 28 20 28 23 26 32 36 43 46 37 34 29 28 26 22 20 20 20 26 29 47 48 40 25 19 14 16 22 42 68 75 76 87 96 98 98 98 99 98 98 100 100
32 33 30 27 25 30 29 26 32 45 51 47 41 35 30 25 23 21 22 26 28 32 39 45 36 25 20 13 15 16 24 52 76 76 84 93 100 100 100 98 99 100 100 100
30 30 28 28 28 25 27 30 36 39 40 45 46 42 31 27 24 21 20 23 27 30 39 45 34 26 21 18 13 12 16 34 69 71 84 81 80 88 94 100 100 100 99 100
29 34 31 32 32 28 28 32 40 48 53 64 45 39 32 28 25 23 25 27 31 35 43 50 26 27 22 20 18 13 12 17 47 63 66 74 78 84 88 86 90 94 99 99
26 24 20 32 36 33 26 31 38 47 59 45 55 42 32 28 24 22 24 25 34 39 48 49 29 29 27 22 19 18 14 14 17 34 57 73 76 77 88 90 88 93 99 99
42 31 19 22 35 34 28 36 35 35 34 74 59 52 38 27 28 27 28 29 34 43 52 49 39 32 32 24 22 18 18 18 17 17 19 27 36 44 47 81 99 95 100 98
67 54 23 24 24 30 32 35 35 37 46 49 39 55 43 39 29 31 28 27 32 39 48 60 65 33 34 30 30 24 21 20 22 23 23 24 24 28 32 41 53 67 75 89
56 55 63 24 21 22 22 22 23 27 31 38 46 45 52 43 38 38 36 31 30 34 38 48 58 27 35 31 30 34 35 26 21 25 29 29 29 31 32 32 34 39 52 63
63 58 56 51 37 43 44 26 25 28 31 29 30 37 45 51 60 45 42 38 39 40 42 49 55 40 30 32 36 36 35 40 40 31 25 32 35 34 34 38 39 39 39 42
51 53 48 42 40 46 47 46 34 25 26 33 46 44 42 41 43 36 38 37 39 41 52 58 62 69 35 30 31 38 42 40 39 43 44 33 27 35 38 40 40 41 42 42
48 33 45 46 45 45 45 46 50 48 50 39 40 35 47 48 42 36 34 36 37 39 43 52 62 64 65 44 29 32 40 45 46 46 48 50 48 37 30 34 38 39 39 39
48 42 37 36 36 35 35 44 47 50 51 50 46 41 37 40 40 40 41 40 39 37 37 37 42 54 68 70 34 26 33 41 46 48 48 50 58 60 52 36 34 35 37 40
65 66 61 50 39 32 35 36 36 34 34 35 38 40 40 38 37 37 37 36 36 38 36 35 35 43 52 58 35 31 36 39 36 32 30 33 35 38 48 60 58 54 47 42
80 77 67 60 54 39 37 36 31 27 25 27 27 29 33 37 36 37 43 44 44 39 35 34 38 40 48 55 51 31 30 30 28 29 28 27 26 30 38 55 67 70 71 74
82 85 85 74 64 61 46 29 30 35 37 36 50 35 25 30 48 53 55 51 43 43 40 38 38 47 48 48 55 57 39 32 29 30 32 33 28 27 28 50 63 56 40 39
76 84 95 72 60 48 41 39 43 71 60 83 80 72 68 68 66 62 58 51 57 62 52 51 42 48 50 49 48 52 56 40 32 31 32 35 36 30 30 34 29 35 38 40
78 83 96 81 72 58 55 59 54 58 65 93 81 81 81 72 69 66 69 76 67 72 64 59 55 50 52 49 49 56 54 49 43 40 36 36 36 36 32 30 33 37 41 46
84 96 97 92 90 68 75 63 60 58 90 92 87 82 75 81 89 81 49 40 43 68 68 66 62 58 56 54 49 51 56 51 38 38 42 42 45 46 40 36 36 40 46 51
82 98 98 91 86 79 54 58 73 85 80 82 86 94 91 88 97 75 54 46 45 34 48 67 63 59 57 55 49 45 41 40 40 38 36 43 45 45 48 48 44 45 46 61
93 75 78 73 70 58 79 80 77 70 63 64 89 91 89 76 82 84 83 85 81 86 63 58 68 66 67 54 48 42 39 39 39 39 38 38 47 48 50 53 51 60 71 66
88 82 93 93 70 82 83 86 66 59 60 68 86 82 68 60 61 81 75 86 92 99 95 94 78 73 68 58 48 44 41 38 35 37 41 50 58 59 61 73 78 96 92 67
91 95 97 97 68 57 60 63 69 71 87 85 83 77 66 57 62 70 74 90 94 98 97 81 83 81 74 68 60 54 48 45 42 41 43 49 55 68 73 93 100 100 100 100
74 92 90 81 91 83 91 87 90 82 87 85 66 56 53 53 67 62 72 87 98 91 97 92 74 78 79 73 69 64 55 56 56 64 66 77 91 98 100 100 99 100 99 99

GFSCGP_700_rhum_102.txt.gz
RH
9 8 17 19 25 32 42 43 42 40 40 38 38 36 35 33 31 28 24 24 26 30 31 32 33 37 46 47 30 18 15 49 61 58 70 80 80 87 88 97 100 98 100 87
20 14 12 12 20 21 33 48 46 42 33 36 38 35 35 33 31 32 28 26 25 27 34 32 32 36 42 45 28 20 13 27 62 66 72 80 93 92 94 100 100 100 100 97
25 23 17 15 19 23 20 21 27 30 30 32 33 33 34 35 34 32 29 26 25 25 25 24 30 33 38 41 32 20 12 16 52 64 66 72 84 96 99 100 98 100 99 100
29 28 35 36 34 31 26 22 23 27 27 32 34 47 41 39 34 31 31 28 30 30 24 23 27 34 39 38 29 20 13 13 42 66 64 65 74 88 97 100 99 99 100 99
20 42 27 36 40 30 24 22 23 24 24 24 31 37 42 46 40 32 29 29 29 30 27 25 24 36 43 35 33 20 15 11 43 64 67 68 78 90 99 100 100 100 100 99
23 34 46 45 42 38 37 34 29 26 26 44 40 45 44 44 33 30 30 29 28 30 28 29 26 38 33 31 33 20 17 11 38 60 69 70 76 76 86 99 100 100 100 100
24 22 24 37 38 36 34 33 42 47 55 56 37 39 37 34 35 41 44 31 34 34 26 24 26 28 28 34 31 21 19 12 26 52 64 71 72 82 89 96 98 99 98 100
39 34 23 26 37 36 34 31 42 53 75 56 39 48 43 56 53 46 42 36 37 30 22 22 24 28 32 40 27 22 21 14 13 39 58 67 72 78 85 98 99 98 100 100
47 41 32 29 20 34 31 33 33 32 42 58 50 50 47 43 47 47 45 42 38 35 29 28 29 32 38 36 29 23 22 20 14 14 24 41 54 71 77 82 88 98 97 100
54 51 43 38 33 28 29 28 38 36 49 56 52 44 42 45 52 56 49 46 44 38 31 31 35 37 42 30 32 25 23 23 19 18 19 19 23 38 60 76 84 88 92 98
59 59 53 45 45 43 33 31 38 35 38 47 61 45 36 39 47 80 70 57 53 64 60 43 34 36 39 34 33 28 25 24 24 23 24 24 25 26 28 42 77 88 78 100
88 65 60 50 49 56 31 29 37 42 53 52 48 50 47 60 58 67 83 71 53 52 63 51 46 40 46 34 32 26 25 27 30 26 26 28 28 29 29 30 40 64 77 88
94 88 60 54 57 55 46 54 42 39 43 55 56 45 65 62 74 79 67 89 90 71 52 60 61 58 54 48 36 32 34 35 36 35 35 33 29 30 33 36 36 36 37 45
85 69 53 60 77 68 55 48 55 58 50 51 50 36 63 74 74 89 76 75 98 75 70 46 67 61 59 61 58 43 40 42 41 41 38 39 41 43 33 35 37 40 41 40
71 68 74 40 37 41 48 42 50 36 74 68 55 51 49 49 66 75 69 71 80 98 80 56 53 75 62 57 57 60 61 53 56 47 45 45 46 48 50 36 36 39 41 42
61 66 62 54 39 31 27 30 49 38 38 65 41 33 33 37 52 50 62 72 78 93 88 74 62 61 73 70 62 63 64 60 55 53 54 50 50 52 53 55 48 33 35 39
60 60 56 59 50 34 21 47 41 34 34 39 68 41 42 45 47 49 63 58 63 64 69 72 72 74 72 51 61 60 61 64 67 64 54 47 50 52 56 59 60 60 51 37
76 80 67 60 49 74 34 30 44 52 65 41 41 48 64 52 46 39 63 52 55 52 49 49 55 53 58 56 56 48 62 66 67 56 56 57 48 44 41 53 54 62 62 58
46 87 74 64 72 51 33 48 59 71 85 84 73 84 82 90 91 87 78 73 66 60 55 49 40 42 45 52 64 65 60 68 65 66 56 57 53 51 39 36 43 42 51 61
44 65 76 81 81 87 56 60 61 70 81 92 85 80 63 70 74 71 69 66 63 60 56 47 40 40 36 39 41 62 65 64 57 67 67 60 60 61 55 50 48 44 44 49
54 56 78 82 84 66 46 68 61 60 76 85 78 71 69 64 61 60 58 54 46 46 44 41 37 38 41 41 32 40 55 61 58 56 59 62 60 68 67 70 70 66 56 53
83 67 76 86 82 76 74 54 60 77 68 63 61 56 47 42 53 53 44 37 34 36 33 31 36 31 26 26 26 29 36 39 54 60 62 64 68 89 89 84 91 97 86 79
96 62 64 66 66 50 73 83 85 79 78 73 66 64 61 58 52 37 28 29 30 36 42 45 56 55 47 39 37 32 27 30 33 36 56 59 61 70 80 86 90 98 98 99
97 77 90 71 56 61 67 72 81 96 80 77 75 73 68 62 43 37 35 38 50 56 56 57 69 58 57 54 51 50 45 31 31 43 49 53 54 55 59 64 72 74 85 92
97 92 85 89 82 83 70 85 89 96 93 89 80 71 61 54 42 39 38 39 50 66 66 68 61 56 58 53 51 56 55 56 50 56 65 66 64 66 69 73 70 65 80 85
97 97 96 97 95 83 88 94 100 92 93 88 73 58 65 61 46 34 33 39 55 76 74 63 55 49 48 50 59 81 89 94 85 76 71 72 80 95 100 99 99 100 99 100

GFSCGP_700_rhum_105.txt.gz
RH
17 14 11 11 16 29 37 42 45 45 45 40 37 37 35 34 35 32 32 32 25 24 24 23 27 22 31 33 37 48 36 22 14 47 59 66 68 69 82 98 97 100 98 99
23 21 18 13 12 20 31 38 41 44 44 43 36 32 32 32 36 35 33 31 28 26 29 28 29 31 33 32 36 46 38 22 15 18 59 65 64 74 76 89 99 100 99 96
22 17 22 16 12 14 24 31 35 29 22 23 28 31 28 28 33 34 33 31 30 29 28 27 29 28 27 31 35 47 36 22 16 13 39 61 65 74 77 85 86 98 100 99
22 16 26 26 20 18 18 17 19 22 23 38 26 36 29 29 30 31 31 30 31 29 28 26 28 26 24 24 34 47 36 22 16 13 38 62 62 65 76 94 98 100 97 99
4 14 20 18 23 30 21 20 24 25 24 25 26 35 36 34 29 25 28 29 30 30 30 29 28 27 27 27 43 47 34 21 16 13 48 58 64 73 85 97 100 100 100 99
6 22 23 33 34 28 33 34 40 30 30 42 33 32 30 30 31 32 34 26 31 31 31 30 29 28 29 34 48 46 34 21 16 16 49 62 62 70 77 99 100 100 100 100
17 12 24 45 48 55 54 46 44 54 65 50 32 35 35 38 32 53 53 43 31 33 30 30 28 26 27 38 44 48 31 20 15 19 54 63 63 66 72 91 100 98 100 99
33 24 22 17 41 42 41 35 43 53 65 54 40 51 39 36 56 57 50 45 44 40 37 34 28 26 26 35 50 44 27 20 15 18 53 60 66 70 74 86 93 100 100 100
43 40 32 29 19 24 34 38 36 35 43 58 40 42 38 39 46 53 50 49 51 47 35 33 25 22 26 40 50 36 27 20 17 15 37 52 62 68 75 87 96 100 100 99
54 63 44 45 47 32 26 27 38 43 50 57 51 52 42 43 43 40 53 56 61 47 38 34 25 25 42 53 49 30 28 21 20 17 19 22 32 30 34 66 98 100 97 98
65 65 62 54 51 47 32 34 35 35 40 47 55 46 35 35 35 50 57 85 69 60 44 38 34 37 57 60 48 30 29 22 23 21 21 21 22 23 24 34 64 83 94 95
79 74 69 62 53 57 52 39 31 41 52 45 40 42 36 52 58 61 69 77 87 64 56 45 39 54 61 59 56 30 27 24 24 24 26 27 26 27 28 27 45 75 76 82
84 83 82 66 59 59 62 54 39 33 40 46 59 62 44 49 70 72 67 63 94 83 64 50 54 54 66 63 57 37 28 27 24 28 28 28 28 29 31 32 31 41 66 78
63 75 94 96 93 82 57 50 60 47 48 60 52 48 50 57 73 74 88 83 87 79 96 65 52 57 60 66 60 54 32 31 32 31 28 33 34 34 31 34 36 36 36 49
72 85 86 83 80 63 79 62 48 51 56 59 54 51 48 53 64 63 68 78 84 97 100 89 64 62 69 66 62 55 46 42 40 40 37 34 32 40 43 39 34 38 40 40
89 80 90 74 60 58 65 73 52 68 53 56 62 39 68 51 71 54 80 79 71 97 95 99 91 80 72 71 82 66 58 56 59 58 45 42 38 34 35 43 49 37 37 41
50 78 84 84 47 34 50 50 45 36 49 41 54 73 45 50 53 49 75 69 78 80 86 90 95 86 77 83 86 80 74 76 73 66 58 62 52 43 38 34 32 42 44 37
38 60 81 69 33 59 45 45 54 52 49 44 40 61 90 60 70 83 89 86 79 81 79 81 74 81 75 76 75 80 82 77 86 66 70 73 74 63 52 46 42 35 36 41
34 33 75 62 69 25 50 75 73 56 84 85 85 82 93 78 75 82 84 90 80 68 66 62 58 57 51 49 49 54 69 64 66 65 54 57 70 67 65 61 60 56 48 45
66 57 72 80 80 84 60 67 65 73 83 95 97 93 89 94 78 88 91 71 64 60 56 57 56 54 42 35 30 32 33 42 62 63 64 59 59 64 74 68 63 63 67 65
87 74 71 84 83 54 44 63 63 70 76 84 87 75 64 57 63 59 54 45 42 37 38 38 37 37 35 32 28 26 26 29 32 62 63 60 67 70 72 76 84 76 78 79
97 92 77 85 85 82 57 59 58 77 93 79 61 57 54 53 51 50 41 32 32 32 30 36 36 31 30 33 38 30 28 26 24 28 44 62 61 60 67 85 86 90 91 92
93 97 66 48 58 35 50 81 78 79 76 71 67 68 68 65 63 48 38 36 36 41 41 45 50 49 53 50 46 40 35 30 24 26 28 30 41 58 61 68 91 100 93 99
91 98 97 60 49 38 49 66 76 82 84 82 78 75 70 69 56 42 36 36 39 48 60 63 63 63 64 44 40 37 32 34 38 39 35 36 40 45 41 57 67 75 78 75
97 96 98 86 95 58 75 81 85 82 97 91 87 82 73 58 58 51 34 33 35 41 56 69 68 62 56 48 42 47 39 39 43 50 46 44 51 66 72 81 82 78 88 95
91 97 96 96 91 96 96 79 88 96 98 93 88 79 64 60 50 42 36 38 36 33 31 48 56 58 58 50 45 52 46 41 55 76 71 76 87 85 99 99 99 100 100 98